| time (UTC) | temp F | wind direction | speed MPH | gust MPH | rain 1hr in | rain 24hr in | rain mn in | humidity % | barometer mb |
| 20260505011101 | 69 | 296 | 1.0 | 3.0 | 0.00 | 0.00 | 0.00 | 45 | 1011.5 |
| 20260505010847 | 70 | 100 | 1.0 | 4.0 | 0.00 | 0.00 | 0.00 | 44 | 1011.4 |
| 20260505010840 | 70 | 129 | 1.0 | 4.0 | 0.00 | 0.00 | 0.00 | 43 | 1011.4 |
| 20260505010756 | 69 | 89 | 0.0 | 3.0 | 0.00 | 0.00 | 0.00 | 45 | 1011.4 |
| 20260505010214 | 69 | 11 | 0.0 | 3.0 | 0.00 | 0.00 | 0.00 | 44 | 1011.4 |
| 20260505004602 | 71 | 143 | 1.0 | 5.0 | 0.00 | 0.00 | 0.00 | 42 | 1011.4 |
| 20260505004101 | 71 | 234 | 1.0 | 5.0 | 0.00 | 0.00 | 0.00 | 41 | 1011.3 |
| 20260505003555 | 72 | 160 | 1.0 | 4.0 | 0.00 | 0.00 | 0.00 | 40 | 1011.3 |
| 20260505003345 | 72 | 174 | 1.0 | 4.0 | 0.00 | 0.00 | 0.00 | 40 | 1011.3 |
| 20260505002543 | 72 | 125 | 1.0 | 4.0 | 0.00 | 0.00 | 0.00 | 39 | 1011.2 |
| 20260505002039 | 73 | 143 | 1.0 | 5.0 | 0.00 | 0.00 | 0.00 | 39 | 1011.2 |
| 20260505001530 | 73 | 153 | 1.0 | 5.0 | 0.00 | 0.00 | 0.00 | 38 | 1011.3 |
| 20260505001030 | 73 | 143 | 1.0 | 7.0 | 0.00 | 0.00 | 0.00 | 38 | 1011.2 |
| 20260505000532 | 73 | 175 | 2.0 | 7.0 | 0.00 | 0.00 | 0.00 | 37 | 1011.2 |
| 20260505000330 | 73 | 208 | 2.0 | 11.0 | 0.00 | 0.00 | 0.00 | 37 | 1011.2 |
| 20260504235532 | 74 | 338 | 2.0 | 11.0 | 0.00 | 0.00 | 0.00 | 37 | 1011.1 |
| 20260504235323 | 74 | 188 | 2.0 | 9.0 | 0.00 | 0.00 | 0.00 | 37 | 1011.1 |
| 20260504234531 | 74 | 234 | 2.0 | 8.0 | 0.00 | 0.00 | 0.00 | 36 | 1011.1 |
| 20260504234031 | 74 | 171 | 2.0 | 8.0 | 0.00 | 0.00 | 0.00 | 36 | 1011.1 |
| 20260504233530 | 74 | 171 | 2.0 | 8.0 | 0.00 | 0.00 | 0.00 | 36 | 1011.0 |
| 20260504233329 | 74 | 107 | 2.0 | 8.0 | 0.00 | 0.00 | 0.00 | 36 | 1011.0 |
| 20260504232531 | 74 | 129 | 2.0 | 11.0 | 0.00 | 0.00 | 0.00 | 35 | 1011.0 |
| 20260504232032 | 74 | 136 | 2.0 | 11.0 | 0.00 | 0.00 | 0.00 | 35 | 1010.9 |
| 20260504231530 | 75 | 188 | 2.0 | 8.0 | 0.00 | 0.00 | 0.00 | 35 | 1010.9 |
| 20260504231031 | 75 | 261 | 3.0 | 12.0 | 0.00 | 0.00 | 0.00 | 35 | 1010.8 |
| 20260504230531 | 75 | 143 | 3.0 | 12.0 | 0.00 | 0.00 | 0.00 | 34 | 1010.9 |
| 20260504230032 | 76 | 110 | 4.0 | 16.0 | 0.00 | 0.00 | 0.00 | 34 | 1010.8 |
| 20260504225530 | 76 | 174 | 4.0 | 16.0 | 0.00 | 0.00 | 0.00 | 33 | 1010.8 |
| 20260504225030 | 76 | 243 | 3.0 | 11.0 | 0.00 | 0.00 | 0.00 | 33 | 1010.8 |
| 20260504224825 | 76 | 143 | 3.0 | 9.0 | 0.00 | 0.00 | 0.00 | 33 | 1010.7 |
| 20260504224029 | 76 | 151 | 4.0 | 15.0 | 0.00 | 0.00 | 0.00 | 33 | 1010.8 |
| 20260504223528 | 76 | 194 | 4.0 | 15.0 | 0.00 | 0.00 | 0.00 | 33 | 1010.8 |
| 20260504223031 | 76 | 134 | 5.0 | 18.0 | 0.00 | 0.00 | 0.00 | 33 | 1010.8 |
| 20260504222531 | 76 | 218 | 4.0 | 18.0 | 0.00 | 0.00 | 0.00 | 32 | 1010.8 |
| 20260504222029 | 77 | 150 | 3.0 | 14.0 | 0.00 | 0.00 | 0.00 | 33 | 1010.8 |
| 20260504221530 | 77 | 173 | 3.0 | 12.0 | 0.00 | 0.00 | 0.00 | 31 | 1010.7 |
| 20260504221030 | 77 | 180 | 2.0 | 9.0 | 0.00 | 0.00 | 0.00 | 32 | 1010.6 |
| 20260504220529 | 77 | 11 | 2.0 | 8.0 | 0.00 | 0.00 | 0.00 | 33 | 1010.6 |
| 20260504220030 | 77 | 143 | 3.0 | 8.0 | 0.00 | 0.00 | 0.00 | 32 | 1010.6 |
| 20260504215531 | 78 | 100 | 3.0 | 11.0 | 0.00 | 0.00 | 0.00 | 32 | 1010.6 |
| 20260504215030 | 78 | 162 | 3.0 | 11.0 | 0.00 | 0.00 | 0.00 | 30 | 1010.8 |
| 20260504214830 | 79 | 132 | 3.0 | 15.0 | 0.00 | 0.00 | 0.00 | 30 | 1010.7 |
| 20260504214029 | 79 | 156 | 3.0 | 15.0 | 0.00 | 0.00 | 0.00 | 29 | 1010.6 |
| 20260504213827 | 80 | 176 | 3.0 | 14.0 | 0.00 | 0.00 | 0.00 | 28 | 1010.8 |
| 20260504213031 | 80 | 138 | 4.0 | 14.0 | 0.00 | 0.00 | 0.00 | 28 | 1010.8 |
| 20260504212528 | 80 | 187 | 4.0 | 12.0 | 0.00 | 0.00 | 0.00 | 28 | 1010.8 |
| 20260504212317 | 80 | 160 | 4.0 | 16.0 | 0.00 | 0.00 | 0.00 | 28 | 1010.8 |
| 20260504211515 | 80 | 156 | 3.0 | 16.0 | 0.00 | 0.00 | 0.00 | 27 | 1010.9 |
| 20260504211009 | 79 | 73 | 4.0 | 15.0 | 0.00 | 0.00 | 0.00 | 29 | 1010.7 |
| 20260504210503 | 79 | 227 | 3.0 | 15.0 | 0.00 | 0.00 | 0.00 | 28 | 1010.9 |
| 20260504210043 | 79 | 172 | 2.0 | 8.0 | 0.00 | 0.00 | 0.00 | 29 | 1010.9 |
| 20260504205003 | 80 | 54 | 3.0 | 12.0 | 0.00 | 0.00 | 0.00 | 28 | 1010.8 |
| 20260504204503 | 80 | 194 | 3.0 | 12.0 | 0.00 | 0.00 | 0.00 | 28 | 1010.8 |
| 20260504204002 | 80 | 152 | 3.0 | 11.0 | 0.00 | 0.00 | 0.00 | 27 | 1010.9 |
| 20260504203503 | 80 | 179 | 2.0 | 11.0 | 0.00 | 0.00 | 0.00 | 28 | 1011.0 |
| 20260504203308 | 80 | 175 | 2.0 | 8.0 | 0.00 | 0.00 | 0.00 | 28 | 1011.0 |
| 20260504202502 | 80 | 175 | 2.0 | 8.0 | 0.00 | 0.00 | 0.00 | 27 | 1011.1 |
| 20260504202002 | 79 | 153 | 3.0 | 9.0 | 0.00 | 0.00 | 0.00 | 28 | 1011.1 |
| 20260504201501 | 79 | 143 | 4.0 | 12.0 | 0.00 | 0.00 | 0.00 | 28 | 1011.1 |
| 20260504201002 | 78 | 223 | 5.0 | 16.0 | 0.00 | 0.00 | 0.00 | 28 | 1011.2 |
| 20260504200502 | 79 | 217 | 4.0 | 16.0 | 0.00 | 0.00 | 0.00 | 28 | 1011.4 |
| 20260504200003 | 79 | 152 | 4.0 | 9.0 | 0.00 | 0.00 | 0.00 | 28 | 1011.2 |
| 20260504195754 | 80 | 205 | 2.0 | 9.0 | 0.00 | 0.00 | 0.00 | 27 | 1011.2 |
| 20260504195002 | 80 | 192 | 2.0 | 8.0 | 0.00 | 0.00 | 0.00 | 27 | 1011.2 |
| 20260504194501 | 80 | 105 | 3.0 | 16.0 | 0.00 | 0.00 | 0.00 | 28 | 1011.3 |
| 20260504194313 | 79 | 166 | 4.0 | 16.0 | 0.00 | 0.00 | 0.00 | 28 | 1011.4 |
| 20260504193457 | 79 | 149 | 5.0 | 14.0 | 0.00 | 0.00 | 0.00 | 27 | 1011.5 |
| 20260504192949 | 78 | 139 | 5.0 | 16.0 | 0.00 | 0.00 | 0.00 | 28 | 1011.5 |
| 20260504192447 | 79 | 187 | 5.0 | 16.0 | 0.00 | 0.00 | 0.00 | 28 | 1011.6 |
| 20260504191947 | 80 | 155 | 3.0 | 11.0 | 0.00 | 0.00 | 0.00 | 27 | 1011.8 |
| 20260504191447 | 80 | 129 | 3.0 | 16.0 | 0.00 | 0.00 | 0.00 | 29 | 1011.9 |
| 20260504190948 | 79 | 234 | 4.0 | 16.0 | 0.00 | 0.00 | 0.00 | 28 | 1012.0 |
| 20260504190449 | 79 | 246 | 4.0 | 14.0 | 0.00 | 0.00 | 0.00 | 27 | 1012.0 |
| 20260504185949 | 79 | 201 | 4.0 | 14.0 | 0.00 | 0.00 | 0.00 | 28 | 1012.2 |
| 20260504185447 | 78 | 242 | 4.0 | 12.0 | 0.00 | 0.00 | 0.00 | 29 | 1012.2 |
| 20260504184948 | 78 | 186 | 4.0 | 14.0 | 0.00 | 0.00 | 0.00 | 29 | 1012.4 |
| 20260504184450 | 78 | 217 | 4.0 | 16.0 | 0.00 | 0.00 | 0.00 | 29 | 1012.5 |
| 20260504183947 | 76 | 181 | 5.0 | 24.0 | 0.00 | 0.00 | 0.00 | 32 | 1012.5 |
| 20260504183448 | 77 | 190 | 4.0 | 24.0 | 0.00 | 0.00 | 0.00 | 29 | 1012.6 |
| 20260504182947 | 78 | 242 | 4.0 | 16.0 | 0.00 | 0.00 | 0.00 | 29 | 1012.7 |
| 20260504182448 | 77 | 222 | 4.0 | 16.0 | 0.00 | 0.00 | 0.00 | 29 | 1012.8 |
| 20260504182253 | 77 | 241 | 4.0 | 16.0 | 0.00 | 0.00 | 0.00 | 29 | 1012.8 |
| 20260504181447 | 77 | 196 | 3.0 | 11.0 | 0.00 | 0.00 | 0.00 | 28 | 1012.9 |
| 20260504180947 | 77 | 257 | 2.0 | 8.0 | 0.00 | 0.00 | 0.00 | 30 | 1012.9 |
| 20260504180447 | 78 | 143 | 2.0 | 8.0 | 0.00 | 0.00 | 0.00 | 28 | 1013.0 |
| 20260504175947 | 78 | 187 | 2.0 | 8.0 | 0.00 | 0.00 | 0.00 | 30 | 1013.1 |
| 20260504175449 | 76 | 210 | 2.0 | 14.0 | 0.00 | 0.00 | 0.00 | 29 | 1013.2 |
| 20260504174946 | 76 | 167 | 4.0 | 14.0 | 0.00 | 0.00 | 0.00 | 31 | 1013.3 |
| 20260504174447 | 75 | 234 | 4.0 | 12.0 | 0.00 | 0.00 | 0.00 | 31 | 1013.3 |
| 20260504173948 | 75 | 269 | 3.0 | 12.0 | 0.00 | 0.00 | 0.00 | 32 | 1013.3 |
| 20260504173543 | 75 | 201 | 3.0 | 9.0 | 0.00 | 0.00 | 0.00 | 32 | 1013.5 |
| 20260504173523 | 76 | 129 | 3.0 | 7.0 | 0.00 | 0.00 | 0.00 | 30 | 1013.5 |
| 20260504172730 | 74 | 210 | 3.0 | 11.0 | 0.00 | 0.00 | 0.00 | 34 | 1013.6 |
| 20260504171939 | 74 | 215 | 4.0 | 11.0 | 0.00 | 0.00 | 0.00 | 31 | 1013.7 |
| 20260504171441 | 74 | 150 | 4.0 | 11.0 | 0.00 | 0.00 | 0.00 | 31 | 1013.7 |
| 20260504170942 | 74 | 223 | 4.0 | 11.0 | 0.00 | 0.00 | 0.00 | 32 | 1013.8 |
| 20260504170440 | 74 | 234 | 3.0 | 9.0 | 0.00 | 0.00 | 0.00 | 30 | 1014.0 |
| 20260504160437 | 71 | 272 | 4.0 | 12.0 | 0.00 | 0.00 | 0.00 | 32 | 1014.7 |
| 20260504150931 | 68 | 125 | 4.0 | 12.0 | 0.00 | 0.00 | 0.00 | 33 | 1015.2 |
| 20260504150429 | 68 | 205 | 4.0 | 12.0 | 0.00 | 0.00 | 0.00 | 34 | 1015.3 |
| 20260504140930 | 62 | 82 | 1.0 | 5.0 | 0.00 | 0.00 | 0.00 | 45 | 1015.3 |
| 20260504140722 | 62 | 188 | 1.0 | 5.0 | 0.00 | 0.00 | 0.00 | 43 | 1015.4 |
| 20260504130430 | 56 | 82 | 1.0 | 5.0 | 0.00 | 0.00 | 0.00 | 52 | 1015.9 |
| 20260504130222 | 56 | 166 | 2.0 | 5.0 | 0.00 | 0.00 | 0.00 | 52 | 1016.0 |
| 20260504100403 | 46 | 82 | 1.0 | 3.0 | 0.00 | 0.00 | 0.00 | 83 | 1016.2 |
| 20260504081902 | 46 | 265 | 1.0 | 3.0 | 0.00 | 0.00 | 0.00 | 82 | 1016.6 |
| 20260504081403 | 46 | 248 | 1.0 | 3.0 | 0.00 | 0.00 | 0.00 | 82 | 1016.4 |
| 20260504081157 | 45 | 129 | 1.0 | 3.0 | 0.00 | 0.00 | 0.00 | 82 | 1016.4 |
| 20260504080401 | 45 | 73 | 1.0 | 3.0 | 0.00 | 0.00 | 0.00 | 83 | 1016.6 |
| 20260504050650 | 42 | 54 | 1.0 | 1.0 | 0.00 | 0.00 | 0.00 | 81 | 1017.2 |
| 20260504045857 | 42 | 54 | 1.0 | 1.0 | 0.00 | 0.00 | 0.00 | 81 | 1017.1 |
| 20260504045356 | 42 | 54 | 1.0 | 1.0 | 0.00 | 0.00 | 0.00 | 81 | 1017.1 |
| 20260504044858 | 42 | 69 | 1.0 | 1.0 | 0.00 | 0.00 | 0.00 | 81 | 1017.1 |
| 20260504044356 | 42 | 54 | 1.0 | 1.0 | 0.00 | 0.00 | 0.00 | 81 | 1017.1 |
| 20260504044151 | 42 | 326 | 1.0 | 1.0 | 0.00 | 0.00 | 0.00 | 81 | 1017.2 |
| 20260504043357 | 42 | 73 | 1.0 | 1.0 | 0.00 | 0.00 | 0.00 | 80 | 1017.1 |
| 20260504042858 | 42 | 54 | 1.0 | 3.0 | 0.00 | 0.00 | 0.00 | 80 | 1017.0 |
| 20260504042357 | 42 | 279 | 1.0 | 3.0 | 0.00 | 0.00 | 0.00 | 80 | 1017.1 |
| 20260504042152 | 43 | 54 | 1.0 | 1.0 | 0.00 | 0.00 | 0.00 | 79 | 1017.0 |
| 20260504041654 | 43 | 82 | 1.0 | 1.0 | 0.00 | 0.00 | 0.00 | 79 | 1017.0 |
| 20260504040857 | 43 | 54 | 1.0 | 3.0 | 0.00 | 0.00 | 0.00 | 79 | 1017.0 |
| 20260504040356 | 43 | 54 | 1.0 | 3.0 | 0.00 | 0.00 | 0.00 | 79 | 1017.0 |
| 20260504035852 | 43 | 11 | 1.0 | 1.0 | 0.00 | 0.00 | 0.00 | 78 | 1017.0 |
| 20260504035649 | 43 | 54 | 0.0 | 1.0 | 0.00 | 0.00 | 0.00 | 78 | 1017.1 |
| 20260504034851 | 44 | 54 | 1.0 | 3.0 | 0.00 | 0.00 | 0.00 | 78 | 1017.2 |
| 20260504034353 | 44 | 54 | 1.0 | 3.0 | 0.00 | 0.00 | 0.00 | 78 | 1017.1 |
| 20260504033850 | 44 | 54 | 1.0 | 1.0 | 0.00 | 0.00 | 0.00 | 77 | 1017.3 |
| 20260504033351 | 44 | 73 | 1.0 | 3.0 | 0.00 | 0.00 | 0.00 | 76 | 1017.1 |
| 20260504032853 | 44 | 89 | 1.0 | 3.0 | 0.00 | 0.00 | 0.00 | 76 | 1017.0 |
| 20260504032351 | 44 | 82 | 1.0 | 1.0 | 0.00 | 0.00 | 0.00 | 76 | 1017.0 |
| 20260504031849 | 45 | 28 | 1.0 | 1.0 | 0.00 | 0.00 | 0.00 | 75 | 1016.8 |
| 20260504031347 | 45 | 110 | 1.0 | 3.0 | 0.00 | 0.00 | 0.00 | 75 | 1016.9 |
| 20260504030847 | 45 | 117 | 1.0 | 3.0 | 0.00 | 0.00 | 0.00 | 74 | 1016.9 |
| 20260504030345 | 45 | 117 | 1.0 | 1.0 | 0.00 | 0.00 | 0.00 | 74 | 1016.9 |
| 20260504025845 | 45 | 54 | 1.0 | 3.0 | 0.00 | 0.00 | 0.00 | 73 | 1016.8 |
| 20260504025343 | 45 | 54 | 1.0 | 3.0 | 0.00 | 0.00 | 0.00 | 72 | 1016.9 |
| 20260504024844 | 46 | 89 | 1.0 | 1.0 | 0.00 | 0.00 | 0.00 | 72 | 1016.8 |
| 20260504024343 | 46 | 82 | 0.0 | 1.0 | 0.00 | 0.00 | 0.00 | 71 | 1016.7 |
| 20260504023844 | 46 | 73 | 1.0 | 1.0 | 0.00 | 0.00 | 0.00 | 70 | 1016.7 |
| 20260504023338 | 46 | 100 | 1.0 | 3.0 | 0.00 | 0.00 | 0.00 | 69 | 1016.8 |
| 20260504023129 | 46 | 54 | 1.0 | 3.0 | 0.00 | 0.00 | 0.00 | 68 | 1016.7 |
| 20260504022331 | 46 | 89 | 0.0 | 1.0 | 0.00 | 0.00 | 0.00 | 67 | 1016.7 |
| 20260504022123 | 47 | 73 | 0.0 | 1.0 | 0.00 | 0.00 | 0.00 | 67 | 1016.6 |
| 20260504021621 | 47 | 54 | 0.0 | 1.0 | 0.00 | 0.00 | 0.00 | 67 | 1016.6 |
| 20260504020830 | 47 | 54 | 0.0 | 3.0 | 0.00 | 0.00 | 0.00 | 66 | 1016.6 |
| 20260504020333 | 47 | 54 | 1.0 | 3.0 | 0.00 | 0.00 | 0.00 | 66 | 1016.6 |
| 20260504020123 | 48 | 143 | 1.0 | 3.0 | 0.00 | 0.00 | 0.00 | 64 | 1016.6 |
| 20260504015623 | 48 | 54 | 1.0 | 3.0 | 0.00 | 0.00 | 0.00 | 63 | 1016.5 |
| 20260504014830 | 48 | 326 | 1.0 | 3.0 | 0.00 | 0.00 | 0.00 | 63 | 1016.5 |
| 20260504014330 | 48 | 73 | 1.0 | 3.0 | 0.00 | 0.00 | 0.00 | 64 | 1016.4 |
| 20260504014126 | 49 | 345 | 1.0 | 3.0 | 0.00 | 0.00 | 0.00 | 62 | 1016.3 |
| 20260504013632 | 49 | 134 | 1.0 | 3.0 | 0.00 | 0.00 | 0.00 | 61 | 1016.3 |
| 20260504012830 | 49 | 117 | 1.0 | 3.0 | 0.00 | 0.00 | 0.00 | 60 | 1016.3 |
| 20260504012332 | 50 | 117 | 1.0 | 3.0 | 0.00 | 0.00 | 0.00 | 59 | 1016.2 |
| 20260504011830 | 50 | 100 | 1.0 | 3.0 | 0.00 | 0.00 | 0.00 | 58 | 1016.1 |